www.pogodaiklimat.ru

Погода и климат >> Архив погоды >> Франция >> Брест


АРХИВ ПОГОДЫ в Бресте

Время (UTC), дата Ветер
(напр.,м/с)
 
Видим.   Явления Облачность Т
(С)
Тd
(С)
f
(%)
Тe
(С)
Тes
(С)
Комфортность P
(гПа)
Po
(гПа)
Тmin
(С)
Tmax
(С)
R
(мм)
R24
(мм)
S
(см)
13 18.06 СВ 2 35 км 10/10
[]
+20.4 +14.1 67 +24 +24 комфорт 1010.4 999.0
14 18.06 СВ 2 29 км 8/8
[]
+20.3 +13.5 65 +23 +26 комфорт 1009.9 998.5
15 18.06 СВ 4
{6}
26 км 9/0
[]
+20.2 +13.6 66 +23 +28 комфорт 1009.9 998.5 0
16 18.06 СВ 2 40 км 10/10
[]
+19.4 +13.3 68 +22 +22 комфорт 1009.7 998.3
17 18.06 СВ 2 35 км 10/10
[]
+18.7 +14.4 76 +20 +20 тепло 1009.5 998.1
18 18.06 СВ 2
{5}
22 км 10/10 1500 м
[]
+18.2 +15.3 83 +19 +19 тепло 1009.6 998.2 +13.5 +21.3 0.0 0
19 18.06 С 1 16 км 10/10
[]
+17.6 +15.6 88 +19 +19 тепло 1009.3 997.8 0.2
20 18.06 СВ 1 9000 м 10/10
[]
+17.2 +15.9 92 +18 +18 тепло 1009.3 997.8 0.0
21 18.06 СВ 1
{3}
9000 м 10/0
[]
+16.6 +15.1 91 +17 +17 тепло 1009.3 997.8 0.2 0
22 18.06 СЗ 1 3900 м дымка 10/10
[]
+15.6 +14.6 94 +16 +16 тепло 1009.3 997.8
23 18.06 С 2 200 м туман ?/? +14.3 +13.7 96 +14 +14 тепло 1008.8 997.2
00 19.06 С 3
{6}
200 м туман ?/? +13.5 +13.0 97 +12 +12 по сезону 1008.8 997.2 0
01 19.06 С 1 500 м туман ?/? +13.3 +13.0 98 +13 +13 тепло 1008.5 996.9
02 19.06 СВ 1 1900 м дымка 10/10 50 м
[]
+13.6 +13.3 98 +14 +14 тепло 1009.1 997.5
03 19.06 С 2
{3}
3000 м дымка 10/10 50 м
[]
+13.7 +13.4 98 +13 +13 по сезону 1009.1 997.5 0
04 19.06 СВ 1 4300 м дымка 10/10 2000 м
[]
+13.7 +13.4 98 +14 +14 тепло 1009.0 997.4 0.4
05 19.06 штиль 0 4000 м слаб. дождь 10/10 1500 м
[]
+13.8 +13.5 98 +13 +13 тепло 1009.0 997.4 0.0
06 19.06 СЗ 2
{3}
4900 м дымка 10/10 1500 м
[]
+14.2 +13.9 98 +14 +14 тепло 1009.3 997.7 +13.3 +18.2 0.4 0
07 19.06 З 2 9000 м 10/10 1500 м
[]
+14.7 +14.2 97 +15 +15 тепло 1009.7 998.1
08 19.06 СЗ 2 6000 м 10/5 100 м
[]
+14.6 +13.6 94 +14 +16 по сезону 1009.8 998.2
09 19.06 СЗ 4
{6}
6000 м 10/10 200 м
[]
+14.4 +12.9 91 +13 +13 по сезону 1010.4 998.8 0
10 19.06 СЗ 2 7000 м 10/10 100 м
[]
+14.0 +12.7 92 +14 +14 прохладно 1011.0 999.4
11 19.06 СЗ 2 14 км 10/10 200 м
[]
+14.3 +12.8 91 +14 +14 прохладно 1011.4 999.8
12 19.06 С 4
{6}
28 км 10/10 300 м
[]
+15.7 +12.4 81 +15 +15 по сезону 1011.7 1000.1 0
13 19.06 С 2 35 км 10/10 300 м
[]
+16.2 +12.2 77 +16 +16 по сезону 1012.0 1000.4
14 19.06 С 3 35 км 10/10 300 м
[]
+15.8 +12.0 78 +15 +15 по сезону 1012.4 1000.8
15 19.06 СЗ 4
{7}
23 км 10/10 300 м
[]
+16.3 +11.4 73 +16 +16 по сезону 1012.7 1001.1 0
16 19.06 СЗ 3 29 км 9/8 300 м
[]
+15.8 +11.0 73 +16 +17 тепло 1012.8 1001.2
17 19.06 СЗ 3 19 км 10/6 300 м
[]
+15.7 +11.1 74 +15 +16 по сезону 1013.0 1001.4
18 19.06 СЗ 5
{8}
23 км 10/10 300 м
[]
+15.5 +10.0 70 +14 +14 по сезону 1013.5 1001.9 +13.9 +16.7 0
19 19.06 СЗ 3 19 км н/о +14.3 +10.3 77 +14 +14 тепло 1014.1 1002.4
20 19.06 СЗ 2 30 км 8/8 300 м
[]
+13.2 +10.2 82 +12 +12 по сезону 1014.5 1002.8
21 19.06 СЗ 2
{8}
25 км н/о +11.7 +9.6 87 +11 +11 прохладно 1015.3 1003.5 0
22 19.06 З 1 18 км н/о +10.4 +9.0 91 +10 +10 тепло 1015.5 1003.7
23 19.06 З 1 12 км н/о +9.4 +8.5 94 +9 +9 по сезону 1015.8 1003.9
00 20.06 З 2
{3}
2800 м дымка н/о +8.7 +7.8 94 +7 +7 прохладно 1016.1 1004.2 0
01 20.06 З 1 4900 м дымка н/о +8.3 +7.7 96 +7 +7 по сезону 1016.1 1004.2
02 20.06 З 1 200 м туман н/о +7.7 +7.1 96 +7 +7 по сезону 1016.1 1004.1
03 20.06 З 2
{3}
400 м туман н/о +7.4 +7.0 97 +6 +6 холодно 1016.2 1004.2 0
04 20.06 З 1 12 км 8/8 600 м
[]
+8.0 +7.6 97 +7 +7 по сезону 1016.4 1004.4
05 20.06 З 1 11 км н/о +8.8 +8.3 97 +8 +8 по сезону 1016.5 1004.6
06 20.06 З 3
{4}
16 км 9/9 1000 м
[]
+12.0 +11.5 97 +10 +11 по сезону 1016.6 1004.8 +6.8 +16.1 0
07 20.06 З 2 23 км 10/1 1000 м
[]
+13.1 +11.8 92 +13 +14 по сезону 1016.8 1005.1
08 20.06 З 2 30 км н/о +14.1 +10.3 78 +14 +14 по сезону 1017.2 1005.5
09 20.06 З 5
{7}
17 км 8/8 600 м
[]
+16.1 +10.4 69 +15 +16 по сезону 1017.3 1005.7 0
10 20.06 З 2 40 км 8/4 600 м
[]
+16.0 +8.5 61 +16 +22 по сезону 1017.5 1005.9
11 20.06 З 3 40 км н/о +15.6 +8.8 64 +15 +15 по сезону 1017.9 1006.2
12 20.06 З 5
{9}
25 км 8/8 600 м
[]
+17.0 +8.9 59 +16 +18 по сезону 1017.8 1006.2 0
13 20.06 З 2 27 км 9/3 1000 м
[]
+17.0 +9.7 62 +17 +24 тепло 1018.0 1006.4
14 20.06 З 3 35 км 10/4 600 м
[]
+16.2 +9.6 65 +16 +20 по сезону 1018.2 1006.6
15 20.06 З 5
{9}
45 км 10/10 600 м
[]
+15.9 +9.8 67 +15 +15 по сезону 1018.5 1006.8 0
16 20.06 З 3 28 км 10/5 600 м
[]
+17.3 +8.7 57 +17 +20 тепло 1018.5 1006.9
17 20.06 З 3 29 км н/о +17.1 +8.2 56 +17 +17 тепло 1018.6 1007.0
18 20.06 З 4
{8}
23 км н/о +16.0 +8.7 62 +15 +15 по сезону 1018.9 1007.2 +12.0 +18.4 0
19 20.06 СЗ 2 40 км н/о +15.4 +9.3 67 +16 +16 тепло 1019.0 1007.3
20 20.06 З 1 40 км н/о +13.6 +9.2 75 +14 +14 тепло 1019.3 1007.5
21 20.06 З 1
{4}
25 км 8/8 300 м
[]
+12.4 +10.1 86 +12 +12 по сезону 1019.9 1008.1 0
22 20.06 ЮЗ 1 19 км н/о +10.5 +9.1 91 +10 +10 тепло 1020.3 1008.4
23 20.06 З 1 3500 м дымка н/о +10.5 +9.7 95 +11 +11 по сезону 1020.7 1008.8
00 21.06 З 2
{2}
300 м туман н/о +9.9 +9.3 96 +9 +9 по сезону 1020.6 1008.7 0.2 0
01 21.06 ЮЗ 1 700 м туман н/о +9.2 +8.6 96 +9 +9 по сезону 1020.6 1008.6
02 21.06 З 1 100 м туман н/о +8.7 +8.2 97 +8 +8 по сезону 1020.7 1008.7
03 21.06 ЮЗ 1
{2}
100 м туман н/о +8.4 +8.0 97 +7 +7 прохладно 1020.8 1008.8 0
04 21.06 З 1 400 м туман н/о +8.8 +8.5 98 +9 +9 по сезону 1021.0 1009.0
05 21.06 ЮЗ 1 200 м туман местами ?/? +8.6 +8.2 97 +9 +9 по сезону 1021.2 1009.2
06 21.06 З 1
{2}
8000 м н/о +11.7 +11.4 98 +11 +11 по сезону 1021.4 1009.5 +7.5 +16.1 0.2 0
07 21.06 З 1 19 км н/о +13.1 +11.7 91 +13 +13 по сезону 1021.6 1009.8
08 21.06 З 1 27 км н/о +15.5 +11.5 77 +17 +17 тепло 1021.8 1010.1
09 21.06 З 3
{5}
35 км н/о +16.6 +8.8 60 +17 +17 тепло 1021.7 1010.0 0
10 21.06 СЗ 1 35 км 10/6 600 м
[]
+16.0 +9.6 66 +17 +20 по сезону 1021.8 1010.1
11 21.06 З 1 50 км 9/8 600 м
[]
+16.8 +9.2 61 +18 +21 тепло 1021.9 1010.2
12 21.06 ЮЗ 3
{5}
35 км 10/10 1000 м
[]
+15.7 +10.5 71 +15 +15 прохладно 1022.2 1010.5 0
13 21.06 З 1 30 км 10/10 1500 м
[]
+15.5 +10.0 70 +16 +16 по сезону 1022.3 1010.6
14 21.06 СЗ 1 18 км 10/1 600 м
[]
+16.3 +9.2 63 +17 +26 по сезону 1022.4 1010.7
15 21.06 СЗ 3
{5}
45 км 10/10 1000 м
[]
+16.6 +9.0 61 +17 +17 по сезону 1022.4 1010.7 0
16 21.06 С 1 45 км 8/8 2000 м
[]
+17.2 +9.9 62 +18 +20 тепло 1022.2 1010.6
17 21.06 С 2 35 км н/о +17.0 +9.4 61 +18 +18 тепло 1022.3 1010.6
18 21.06 С 3
{7}
35 км н/о +16.6 +8.8 60 +16 +16 по сезону 1022.3 1010.6 +11.9 +18.5 0
19 21.06 С 1 45 км н/о +15.7 +9.4 66 +16 +16 тепло 1022.5 1010.8
20 21.06 С 1 40 км н/о +14.4 +9.6 73 +15 +15 тепло 1022.6 1010.8
21 21.06 СВ 2
{3}
29 км н/о +12.4 +9.6 83 +11 +11 прохладно 1022.5 1010.7 0
22 21.06 СВ 1 16 км н/о +11.6 +10.0 90 +11 +11 тепло 1022.6 1010.7
23 21.06 СВ 2 5000 м н/о +11.2 +10.4 95 +10 +10 по сезону 1022.1 1010.2
00 22.06 СВ 3
{4}
1700 м дымка н/о +10.9 +10.1 95 +9 +9 по сезону 1021.8 1009.9 0
01 22.06 СВ 1 2500 м дымка 9/9 1500 м
[]
+10.7 +10.1 96 +11 +11 тепло 1021.8 1009.9
02 22.06 СВ 1 2500 м дымка н/о +10.2 +9.6 96 +10 +10 по сезону 1021.3 1009.4 0.2
03 22.06 В 3
{3}
4500 м дымка н/о +9.8 +9.2 96 +8 +8 прохладно 1020.5 1008.6 0.2 0
04 22.06 В 2 18 км н/о +10.1 +8.5 90 +8 +8 по сезону 1020.1 1008.2
05 22.06 В 2 30 км н/о +10.0 +7.8 86 +8 +8 по сезону 1019.9 1008.0
06 22.06 В 3
{5}
22 км н/о +13.3 +9.2 76 +12 +12 по сезону 1019.4 1007.6 +9.2 +16.8 0.2 0
07 22.06 ЮВ 3 22 км н/о +16.0 +10.5 70 +16 +16 тепло 1019.0 1007.3
08 22.06 ЮВ 3 14 км н/о +18.6 +11.4 63 +19 +19 тепло 1018.5 1007.0
09 22.06 ЮВ 5
{8}
16 км н/о +20.5 +11.4 56 +22 +22 комфорт 1018.3 1006.8 0
10 22.06 ЮВ 3 23 км н/о +21.9 +11.3 51 +24 +24 комфорт 1017.7 1006.3
11 22.06 ЮВ 4 19 км н/о +23.2 +10.6 45 +25 +25 комфорт 1017.2 1005.8
12 22.06 Ю 7
{12}
25 км н/о +23.2 +10.9 46 +25 +25 комфорт 1016.8 1005.5 0
13 22.06 Ю 5 23 км 9/9 1500 м
[]
+23.2 +10.3 44 +25 +26 комфорт 1016.4 1005.1
14 22.06 Ю 4 21 км н/о +23.4 +9.8 42 +25 +25 комфорт 1016.0 1004.7
15 22.06 Ю 8
{12}
19 км 8/8 1500 м
[]
+23.8 +10.8 44 +25 +26 комфорт 1015.9 1004.6 0
16 22.06 Ю 4 30 км н/о +23.1 +9.8 43 +25 +25 комфорт 1015.5 1004.2
17 22.06 Ю 3 30 км н/о +22.7 +9.5 43 +24 +24 комфорт 1015.5 1004.1
18 22.06 Ю 5
{9}
50 км н/о +21.3 +9.5 47 +23 +23 комфорт 1015.3 1003.9 +13.4 +24.5 0
19 22.06 Ю 2 55 км 10/10
[]
+20.5 +10.6 53 +23 +23 комфорт 1014.9 1003.5
20 22.06 ЮВ 1 55 км 8/8
[]
+19.0 +11.3 61 +21 +21 комфорт 1014.7 1003.2
21 22.06 В 3
{4}
55 км 10/0
[]
+18.8 +11.1 61 +20 +20 тепло 1014.8 1003.3 0
22 22.06 В 2 60 км 10/10
[]
+18.1 +11.6 66 +19 +19 тепло 1014.6 1003.1
23 22.06 В 2 55 км 9/9
[]
+17.8 +11.8 68 +19 +19 тепло 1014.2 1002.7
00 23.06 ЮВ 4
{5}
60 км 10/0
[]
+17.4 +11.4 68 +17 +17 тепло 1013.8 1002.3 0
01 23.06 В 2 60 км 10/10
[]
+18.2 +10.3 60 +19 +19 тепло 1013.4 1001.9
02 23.06 ЮВ 2 60 км 10/10
[]
+18.4 +9.7 57 +19 +19 тепло 1012.7 1001.2
03 23.06 ЮВ 4
{6}
60 км 10/0
[]
+17.8 +9.7 59 +18 +18 тепло 1012.4 1000.9 0
04 23.06 ЮВ 3 60 км 10/10
[]
+17.5 +9.9 61 +18 +18 тепло 1011.8 1000.3
05 23.06 ЮВ 2 60 км 10/10
[]
+18.0 +10.1 60 +19 +19 тепло 1011.8 1000.3
06 23.06 ЮВ 4
{6}
45 км 10/0
[]
+17.7 +11.0 65 +18 +18 тепло 1012.4 1000.9 +17.3 +21.2 0.0 0
07 23.06 Ю 1 17 км слаб. дождь 10/3 200 м
[]
+17.0 +12.5 75 +19 +20 тепло 1012.9 1001.4 0.4
08 23.06 ЮВ 2 23 км слаб. дождь 10/3 1000 м
[]
+17.0 +12.9 77 +17 +20 тепло 1012.7 1001.2 0.0
09 23.06 ЮВ 5
{6}
11 км слаб. дождь 10/10 1000 м
[]
+16.4 +13.5 83 +16 +16 по сезону 1012.4 1000.8 1 0
10 23.06 ЮВ 3 22 км слаб. дождь 10/8 1000 м
[]
+17.4 +15.2 87 +18 +19 тепло 1012.1 1000.6 0.6
11 23.06 ЮВ 1 11 км 9/1 600 м
[]
+18.3 +15.5 84 +20 +30 тепло 1011.8 1000.3 0.2
12 23.06 В 2
{4}
55 км 9/0 2000 м
[]
+19.6 +14.6 73 +22 +32 комфорт 1011.4 1000.0 0.8 0
13 23.06 В 1 40 км 8/8
[]
+20.9 +15.0 69 +25 +29 комфорт 1011.2 999.8
14 23.06 ЮВ 2 28 км 9/1 600 м
[]
+23.6 +17.3 68 +27 +36 жарко 1010.7 999.5
15 23.06 ЮВ 3
{6}
45 км н/о +22.7 +16.5 68 +27 +27 душно 1010.9 999.6 0
16 23.06 Ю 3 35 км 9/8 600 м
[]
+21.5 +16.0 71 +25 +26 комфорт 1011.1 999.8
17 23.06 ЮЗ 2 35 км н/о +21.1 +16.3 74 +24 +24 комфорт 1011.1 999.8
18 23.06 ЮЗ 5
{8}
28 км н/о +18.5 +14.6 78 +19 +19 тепло 1011.8 1000.3 +16.4 +24.1 2 0
19 23.06 ЮЗ 2 25 км н/о +18.4 +15.1 81 +20 +20 тепло 1012.3 1000.8
20 23.06 З 2 30 км 8/8 300 м
[]
+16.7 +14.3 86 +17 +17 тепло 1012.9 1001.4
21 23.06 З 3
{5}
22 км 8/8 300 м
[]
+14.8 +13.3 91 +14 +14 по сезону 1013.7 1002.1 0
22 23.06 ЮЗ 2 23 км 9/9 200 м
[]
+15.1 +13.8 92 +15 +15 тепло 1014.2 1002.6
23 23.06 Ю 1 17 км 9/6 100 м
[]
+14.3 +13.0 92 +15 +15 тепло 1014.5 1002.8
00 24.06 Ю 2
{4}
10 км 9/9 200 м
[]
+14.3 +13.3 94 +14 +14 тепло 1014.6 1002.9 0
01 24.06 ЮЗ 1 7000 м 10/10
[]
+13.7 +12.8 94 +15 +15 тепло 1014.6 1002.9
02 24.06 Ю 1 7000 м 10/10 100 м
[]
+14.5 +13.9 96 +15 +15 тепло 1014.7 1003.0
03 24.06 Ю 2
{4}
6000 м 10/10 100 м
[]
+14.8 +14.2 96 +14 +14 тепло 1014.6 1003.0 0
04 24.06 Ю 1 8000 м 10/10 100 м
[]
+14.9 +14.3 96 +15 +15 тепло 1014.7 1003.1
05 24.06 Ю 2 8000 м 10/10 200 м
[]
+15.0 +14.4 96 +15 +15 тепло 1015.5 1003.9
06 24.06 Ю 3
{5}
10 км 10/10 100 м
[]
+15.3 +14.7 96 +15 +15 тепло 1015.8 1004.2 +13.6 +18.6 0
07 24.06 Ю 1 12 км 9/9 200 м
[]
+15.7 +14.6 93 +16 +17 тепло 1016.3 1004.7
08 24.06 Ю 1 13 км 10/4 200 м
[]
+16.3 +14.5 89 +18 +20 тепло 1016.5 1004.9
09 24.06 Ю 2
{3}
18 км 9/9 300 м
[]
+17.9 +14.0 78 +19 +20 тепло 1016.5 1005.0 0
10 24.06 З 1 16 км 8/5 300 м
[]
+18.8 +14.5 76 +21 +28 комфорт 1016.7 1005.2
11 24.06 СЗ 1 26 км 9/8 300 м
[]
+19.2 +14.5 74 +22 +25 комфорт 1016.8 1005.3
12 24.06 СВ 4
{6}
11 км 9/9 200 м
[]
+18.4 +15.1 81 +19 +20 тепло 1016.7 1005.2 0
13 24.06 СВ 2 12 км 9/9 300 м
[]
+18.6 +15.1 80 +20 +22 тепло 1017.1 1005.6
14 24.06 СВ 3 16 км н/о +19.3 +15.4 78 +21 +21 комфорт 1017.0 1005.5
15 24.06 СВ 4
{7}
19 км 9/9 300 м
[]
+19.1 +14.6 75 +20 +21 тепло 1016.9 1005.4 0
16 24.06 СВ 2 25 км н/о +19.0 +14.3 74 +21 +21 комфорт 1017.4 1005.9
17 24.06 СВ 2 19 км слаб. дождь 10/10 1500 м
[]
+17.9 +14.0 78 +18 +18 тепло 1017.5 1006.0 0.0
18 24.06 СВ 2
{6}
17 км слаб. дождь 10/10 1000 м
[]
+17.3 +14.4 83 +18 +18 тепло 1017.8 1006.2 +15.3 +19.7 0.0 0
19 24.06 В 2 17 км н/о +17.0 +14.5 85 +18 +18 тепло 1017.3 1005.7 0.2
20 24.06 СВ 1 16 км слаб. дождь 10/10
[]
+16.4 +14.2 87 +17 +17 тепло 1017.6 1006.0 0.0
21 24.06 СВ 2
{4}
15 км 10/10 300 м
[]
+15.9 +14.4 91 +16 +16 тепло 1018.1 1006.5 0.2 0
22 24.06 СВ 2 13 км 10/10
[]
+15.6 +14.5 93 +16 +16 тепло 1017.4 1005.8
23 24.06 С 1 10 км 10/10
[]
+15.2 +13.9 92 +16 +16 тепло 1017.9 1006.2 0.0
00 25.06 С 3
{5}
8000 м 10/10 50 м
[]
+14.9 +14.3 96 +14 +14 тепло 1017.7 1006.0 0.0 0
01 25.06 С 3
{5}
4000 м слаб. дождь 10/10 50 м
[]
+14.5 +14.0 97 +14 +14 тепло 1017.7 1006.0 0.4
02 25.06 С 1 7000 м слаб. дождь 10/10 50 м
[]
+14.2 +13.7 97 +14 +14 тепло 1017.6 1005.9 0.6
03 25.06 СВ 2
{4}
5000 м 10/10 50 м
[]
+14.1 +13.6 97 +13 +13 по сезону 1017.5 1005.8 1
04 25.06 СВ 2 5000 м 10/10 100 м
[]
+13.8 +13.3 97 +13 +13 тепло 1017.4 1005.7
05 25.06 СВ 2 3100 м дымка 10/10 50 м
[]
+13.7 +13.2 97 +13 +13 тепло 1017.7 1006.0
06 25.06 С 2
{5}
3400 м дымка 10/10 50 м
[]
+13.7 +13.2 97 +13 +13 по сезону 1018.1 1006.4 +13.6 +17.4 1 0
07 25.06 СВ 1 5000 м 10/9 100 м
[]
+14.9 +14.3 96 +15 +15 тепло 1018.4 1006.7
08 25.06 СВ 1 8000 м 9/9 200 м
[]
+16.4 +14.6 89 +17 +18 тепло 1018.5 1006.9
09 25.06 СВ 2
{4}
15 км 9/9 300 м
[]
+18.6 +14.9 79 +20 +21 тепло 1018.8 1007.3 0
10 25.06 СВ 1 19 км н/о +19.9 +14.0 69 +23 +23 комфорт 1018.8 1007.3
11 25.06 СВ 1 19 км н/о +21.4 +14.3 64 +24 +24 комфорт 1018.9 1007.5
12 25.06 С 2
{4}
26 км 10/10 600 м
[]
+21.1 +14.7 67 +24 +24 комфорт 1019.0 1007.6 0
13 25.06 С 2 18 км 9/9 600 м
[]
+22.2 +14.8 63 +26 +28 душно 1019.0 1007.6

 

Местоположение метеостанции Брест (Франция): широта 48.45 долгота -4.42 высота над уровнем моря 99 м.

В архиве по умолчанию представлена погода в Бресте за последнюю неделю. Архивные данные за месяц целиком и за предыдущие месяцы, начиная с января 2011 года, Вы можете получить, выбрав интересующий диапазон дат из раскрывающегося списка и нажав кнопку "Ввод!".


*Определитесь, кто Вы:
робот инопланетянин человек

Внимание! Время в таблицах - всемирное. Для получения местного времени необходимо прибавить поправку, которая равна 1 ч.

Смотрите также архив погоды в соседних городах и на ближайших метеорологических станциях:

Погода в Плудальмезо (Франция) (21 км)
Погода в Ландивизио (Франция) (21 км)
Погода в Бриньоган-Пляже (Франция) (26 км)
Погода в Иль-де-Ба (Франция) (44 км)
Погода в Уэссане (Франция) (47 км)
Погода на Пуэнт-дю-Ра (Франция) (52 км)
Погода в Кемпере (Франция) (57 км)
Погода в Пенмарше (Франция) (72 км)
Погода в Ланьоне (Франция) (77 км)
Погода в Перрос-Гиреке (Франция) (82 км)

Пояснения к столбцам:

Ветер - указаны скорость ветра в м/с - средняя за 10 мин, порывы в срок и между сроками (в фигурных скобках) и направление, откуда дует ветер: С - северный, СВ - северо-восточный, В - восточный, ЮВ - юго-восточный, Ю - южный, ЮЗ - юго-западный, З - западный, СЗ - северо-западный.
Видимость - горизонтальная дальность видимости в метрах или километрах. При видимости от 1 до 10 км при отсутствии осадков обычно наблюдается дымка, при ухудшении видимости до 1 км и менее - туман. В сухую погоду видимость может ухудшаться дымом, пылью или мглою.
Явления - указаны атмосферные явления, наблюдавшиеся в срок или в последний час перед сроком; фигурными скобками обозначены явления, наблюдавшиеся между сроками (за 1-3 часа до срока); квадратными скобками обозначены град или гололедные отложения с указанием их диаметра в мм.
Облачность - указаны через наклонную черту общая и нижняя облачность в баллах и высота нижней границы облаков в метрах; квадратными скобками обозначены формы облаков: Ci - перистые, Cs - перисто-слоистые, Cc - перисто-кучевые, Ac - высококучевые, As - высокослоистые, Sc - слоисто-кучевые, Ns - слоисто-дождевые, Cu - кучевые, Cb - кучево-дождевые. Подробнее классификацию облаков см. в Атласе облаков (PDF).
T - Температура воздуха - температура, измеренная на высоте 2 м над землей.
Td - Температура точки росы - температура, при понижении до которой содержащийся в воздухе водяной пар достигнет насыщения.
f - Относительная влажность воздуха - влажноcть воздуха, измеренная на высоте 2 м над землей.
Te - Эффективная температура - температура, которую ощущает одетый по сезону человек в тени. Характеристика душности погоды. При расчете учитывается влияние влажности воздуха и скорости ветра на теплоощущения человека.
Tes - Эффективная температура на солнце - температура, которую ощущает человек, с поправкой на солнечный нагрев. Характеристика знойности погоды. Зависит от высоты солнца над горизонтом, облачности и скорости ветра. Ночью, в пасмурную погоду, а также при ветре 12 м/с и более поправка равна нулю.
P - Атмосферное давление - приведенное к уровню моря атмосферное давление.
Po - Атмосферное давление - измеренное на уровне метеостанции атмосферное давление.
Tmin - Минимальная температура - минимум температуры воздуха на высоте 2 м над землей.
Tmax - Максимальная температура - максимум температуры воздуха на высоте 2 м над землей.
R - Количество осадков - Количество выпавших осадков за период времени, мм. При наведении курсора мыши на число - период времени, за который выпало указанное количество осадков.
R24 - Количество осадков - Количество выпавших осадков за 24 часа, мм.
S - Снежный покров - Высота снежного покрова, см. При наведении курсора мыши на число - состояние снежного покрова и степень покрытия местности в баллах.